Location: Lukoge
(1.3667°N, 32.6000°E)
Time: 13:46:58
(UTC+00:00)

Daily predictions for brighter satellites

Satellite Brightness Start Highest point End
(mag) Time Altitude Azimuth Time Altitude Azimuth Time Altitude Azimuth
SYLDA PLATFORM 3.8 16:06:06 10° W 16:09:23 88° N 16:16:02 10° E
Cosmos 1892 Rocket 4.2 16:09:43 10° NNE 16:13:45 34° E 16:17:46 10° SSE
Cosmos 2278 Rocket 2.2 16:10:31 10° N 16:16:08 72° ENE 16:21:46 10° SSE
Cosmos 1939 Rocket 3.9 16:16:41 10° SE 16:20:01 25° ENE 16:23:17 10° NNE
Hubble Space Telescope 3.5 16:20:07 10° NW 16:21:55 13° NNW 16:23:43 10° N
BLOCK DM-SL R/B 4.4 16:16:54 10° W 16:22:06 83° S 16:40:48 13° E
ARIANE 5 R/B 2.8 16:20:29 10° WSW 16:23:12 50° S 16:33:05 11° E
NATO 3D Rocket 4.3 16:19:25 10° NW 16:24:33 47° NNE 16:31:10 11° E
ARIANE 42L R/B 4.0 16:25:21 10° W 16:29:17 65° S 16:44:33 14° E
Cosmos 1953 2.7 16:30:13 10° SSE 16:33:57 40° E 16:37:39 10° NNE
Meteor 2-15 Rocket 4.4 16:28:02 10° S 16:34:03 64° E 16:40:02 10° NNE
Cosmos 1626 3.2 16:32:07 10° NNE 16:35:07 23° E 16:38:08 10° SE
Cosmos 1674 3.0 16:32:13 10° NNW 16:35:52 66° W 16:39:33 10° S
Ariane H10 2.4 16:34:34 10° W 16:36:44 76° S 16:40:43 15° E
Cosmos 371 Rocket 3.9 16:32:19 10° NNW 16:37:05 61° WSW 16:41:54 10° S
Cosmos 1943 3.9 16:33:32 10° SSW 16:39:03 60° WNW 16:44:36 10° N
USA 81 4.0 16:35:36 10° N 16:40:51 77° E 16:46:08 10° S
Atlas 2A Centaur Rocket 0.9 16:38:40 10° WNW 16:41:12 59° SSW 16:42:20 21° SE
Milstar 3 Cent rocket 4.0 16:34:46 10° NW 16:42:32 62° NE 16:56:03 17° ESE
CSL-04 Rocket 4.0 16:37:33 10° SSE 16:42:35 42° ENE 16:47:32 10° N
Cosmos 1470 4.1 16:40:48 10° SSW 16:44:27 42° W 16:48:06 10° NNW
BLOCK DM-SL R/B 2.9 16:29:09 10° W 16:45:38 80° S 16:47:59 22° E
Okean 1-7 Rocket 3.6 16:45:10 10° N 16:49:33 87° W 16:53:59 10° S
SL-08 ROCKET BODY 4.3 16:45:15 10° N 16:51:11 90° WSW 16:57:03 10° S
CZ-2C R/B 4.4 16:48:24 10° NE 16:52:23 30° ESE 16:56:20 10° SSE
ARIANE 2 DEB 4.1 16:52:02 10° WSW 16:54:39 37° SSE 16:56:34 24° ESE
H-2A R/B 3.8 16:57:17 15° NE 16:57:17 15° NE 16:59:00 10° NE
Atlas Centaur 2 3.0 16:49:21 10° WNW 16:55:43 47° SW 16:59:53 15° SE
GPS 2-04 Rocket1 4.5 16:53:26 10° W 16:56:54 30° NW 17:00:29 10° NNE
Meteor 1-24 Rocket 3.5 16:52:11 10° N 16:57:28 90° WSW 17:02:48 10° S
USA 215 4.4 16:52:19 10° SSE 16:58:23 41° SW 17:04:25 10° WNW
ATLAS 5 CENTAUR R/B 3.9 16:58:50 10° NNW 17:01:54 17° NNE 17:07:45 10° NE
Cosmos 482 Debris 4.4 16:58:42 10° NNW 17:03:57 52° NE 17:04:46 42° E
GPS 2-18 Rocket1 4.5 17:02:00 10° W 17:05:22 31° NNW 17:07:17 20° NNE
GPS 2-12 Rocket1 3.4 17:03:57 10° SW 17:08:35 50° SSE 17:09:43 40° ESE
CZ-2D R/B 4.1 17:08:32 10° S 17:12:16 50° WSW 17:15:57 10° NNW
BLOCK DM-SL R/B 2.6 17:08:01 10° W 17:12:22 84° S 17:13:33 45° E
Mugunghwa Rocket 4.5 17:05:26 10° NW 17:13:38 67° NNE 17:17:06 35° E
OAO 3 Rocket 3.4 17:09:28 10° WNW 17:14:18 66° SW 17:16:07 36° SSE
Cosmos 1726 2.6 17:12:07 10° SSW 17:15:47 60° W 17:19:27 10° N
Skynet4D Del rocket 3.8 17:11:13 10° SW 17:16:36 48° SSE 17:17:33 43° ESE
DELTA 2 R/B (1) 4.5 17:11:22 10° WNW 17:16:39 45° SW 17:20:05 21° SSE
YAOGAN 1 3.7 17:12:43 10° S 17:16:51 45° WSW 17:20:58 10° NNW
Meteor 2-10 4.4 17:12:10 10° SSW 17:17:17 64° W 17:22:34 10° N
GPS 2-17 Rocket1 3.7 17:13:21 10° W 17:18:00 49° SSW 17:19:23 37° SSE
Ariane Rocket 3.8 17:30:42 35° NNE 17:30:42 35° NNE 17:33:55 10° N
Nadezhda 1 Rocket 3.9 17:27:02 10° S 17:33:25 76° E 17:39:47 10° N
Cosmos 1190 Rocket 4.4 17:32:06 10° SSW 17:37:21 64° WNW 17:42:36 10° N
ASTRO E2 3.8 17:34:26 10° WSW 17:37:06 41° WSW 17:37:06 41° WSW
Cosmos 1140 Rocket 3.6 17:33:49 10° SSW 17:39:01 74° WNW 17:44:12 10° N
DMSP B5D2-2 4.1 17:41:37 10° N 17:46:50 79° WNW 17:52:06 10° SSW
Ariane H10+ 3.4 17:53:28 10° WSW 17:59:32 30° SW 17:59:32 30° SW
ATLAS 3B CENTAUR R/B 3.6 18:01:04 10° NW 18:03:29 23° NW 18:03:29 23° NW
Cosmos 1943 Rocket 4.3 18:15:28 10° NNW 18:16:39 17° NNW 18:16:39 17° NNW
